Location: Unspecified
(0.0000°N, 0.0000°E)
Time: 15:08:01
(UTC+01:00)

Resurs 01 Rocket - Visible Passes

Search period start: 12 February 2016 00:00
Search period end: 22 February 2016 00:00
Orbit: 635 x 644 km, 98.2° (Epoch: 12 February)

Date Brightness Start Highest point End Pass type
(mag) Time Alt. Az. Time Alt. Az. Time Alt. Az.
12 Feb 3.0 20:23:00 10° S 20:27:12 41° WSW 20:31:23 10° NNW visible
13 Feb 4.3 20:47:17 10° SSW 20:50:31 20° WSW 20:53:48 10° NW visible
14 Feb 2.2 19:33:34 10° SE 19:37:41 36° ENE 19:41:45 10° N visible
15 Feb 1.6 19:56:33 10° SSE 20:01:01 80° ENE 20:05:27 10° N visible
16 Feb 2.8 20:20:05 10° S 20:24:21 46° WSW 20:28:37 10° NNW visible
17 Feb 4.2 20:44:14 10° SSW 20:47:40 22° WSW 20:51:08 10° NW visible
18 Feb 2.3 19:30:49 10° SE 19:34:49 33° ENE 19:38:47 10° NNE visible
18 Feb 5.1 21:10:11 10° WSW 21:11:00 10° WSW 21:11:49 10° W visible
19 Feb 1.6 19:53:43 10° SSE 19:58:10 72° ENE 20:02:34 10° N visible
20 Feb 2.5 20:17:09 10° S 20:21:30 52° WSW 20:25:48 10° NNW visible
21 Feb 4.0 20:41:12 10° SSW 20:44:49 25° WSW 20:48:26 10° NW visible
